This is the latest recevied weather packets stored in our database for station/object WE0DX-1. If no packets are shown the sender has not sent any weather packets the latest 10 day(s).
| Time | Temp. | Humidity | Pressure | Rain* | Wind** | Luminosity | Snow |
|---|---|---|---|---|---|---|---|
| 1777510091 | 15° C | 49% | 1017.5 hPa | 0 mm | - | 11 W/m² | - |
| 1777509788 | 15° C | 49% | 1017.4 hPa | 0 mm | - | 13 W/m² | - |
| 1777509483 | 15° C | 47% | 1017.3 hPa | 0 mm | - | 14 W/m² | - |
| 1777509181 | 15° C | 46% | 1017.1 hPa | 0 mm | - | 14 W/m² | - |
| 1777508878 | 15° C | 46% | 1017.2 hPa | 0 mm | - | 16 W/m² | - |
| 1777508575 | 15° C | 46% | 1017.1 hPa | 0 mm | - | 22 W/m² | - |
| 1777508272 | 15° C | 47% | 1017.2 hPa | 0 mm | - | 25 W/m² | - |
| 1777507969 | 15.56° C | 46% | 1016.9 hPa | 0 mm | - | 31 W/m² | - |
| 1777507665 | 15.56° C | 47% | 1017.1 hPa | 0 mm | - | 31 W/m² | - |
| 1777507363 | 15.56° C | 46% | 1017.1 hPa | 0 mm | - | 28 W/m² | - |
| 1777507060 | 15.56° C | 46% | 1017.2 hPa | 0 mm | - | 26 W/m² | - |
| 1777506758 | 15.56° C | 46% | 1017.2 hPa | 0 mm | - | 25 W/m² | - |
| 1777506453 | 15.56° C | 47% | 1017.2 hPa | 0 mm | - | 26 W/m² | - |
| 1777506149 | 15.56° C | 46% | 1017.1 hPa | 0 mm | - | 40 W/m² | - |
| 1777505845 | 15.56° C | 47% | 1017.3 hPa | 0 mm | - | 43 W/m² | - |
| 1777505541 | 15.56° C | 48% | 1017.2 hPa | 0 mm | - | 51 W/m² | - |
| 1777505238 | 15.56° C | 50% | 1017 hPa | 0 mm | - | 46 W/m² | - |
| 1777504935 | 15.56° C | 50% | 1017.1 hPa | 0 mm | - | 55 W/m² | - |
| 1777504633 | 16.11° C | 48% | 1017.2 hPa | 0 mm | - | 86 W/m² | - |
| 1777504330 | 16.11° C | 48% | 1017.2 hPa | 0 mm | - | 69 W/m² | - |
| 1777504024 | 15.56° C | 47% | 1017.5 hPa | 0 mm | - | 94 W/m² | - |
| 1777503721 | 15° C | 49% | 1017.3 hPa | 0 mm | - | 92 W/m² | - |
| 1777503418 | 15° C | 48% | 1017.3 hPa | 0 mm | - | 89 W/m² | - |
| 1777503113 | 15° C | 48% | 1017.4 hPa | 0 mm | - | 82 W/m² | - |
| 1777502811 | 15° C | 47% | 1017.5 hPa | 0 mm | - | 72 W/m² | - |
* Rain latest hour (hover to see other rain measurements)
** Current wind speed in m/s (hover to see current wind gust speed)